20040107,000013,104235,32.220333,-118.807000,NaN,15.469,33.050,41.211,  NaN,0.0, NaN, NaN, NaN, NaN, NaN,355.115,14.60,1016.35,70.30,NaN,9.0,NaN,2.8,NaN,49.4,NaN,2.6,NaN,NaN, NaN,NaN,238.0,NaN,NaN,NaN,2,10.4,000011,   NaN,239.2,     NaN,      NaN,NaN,5.5,NaN,15.473, NaN,NaN,NaN, NaN, NaN

20040107,000043,104265,32.219500,-118.808500,NaN,15.481,33.050,41.222,  NaN,0.0, NaN, NaN, NaN, NaN, NaN,355.346,14.60,1016.24,70.00,NaN,13.0,NaN,2.6,NaN,48.7,NaN,2.9,NaN,NaN, NaN,NaN,238.0,NaN,NaN,NaN,2,10.4,000041,   NaN,240.6,     NaN,      NaN,NaN,5.4,NaN,15.485, NaN,NaN,NaN, NaN, NaN

20040107,000113,104295,32.218833,-118.810000,NaN,15.489,33.049,41.229,  NaN,0.0, NaN, NaN, NaN, NaN, NaN,355.592,14.60,1016.30,69.60,NaN,10.0,NaN,2.3,NaN,52.7,NaN,3.1,NaN,NaN, NaN,NaN,239.0,NaN,NaN,NaN,2,10.4,000071,   NaN,239.9,     NaN,      NaN,NaN,5.5,NaN,15.493, NaN,NaN,NaN, NaN, NaN

20040107,000143,104325,32.218000,-118.811333,NaN,15.489,33.049,41.228,  NaN,0.0, NaN, NaN, NaN, NaN, NaN,355.637,14.60,1016.23,69.10,NaN,5.0,NaN,2.2,NaN,56.4,NaN,3.2,NaN,NaN, NaN,NaN,238.0,NaN,NaN,NaN,2,10.4,000101,   NaN,239.9,     NaN,      NaN,NaN,5.4,NaN,15.493, NaN,NaN,NaN, NaN, NaN

20040107,000213,104355,32.217333,-118.812833,NaN,15.480,33.046,41.216,  NaN,0.0, NaN, NaN, NaN, NaN, NaN,355.629,14.60,1016.38,70.30,NaN,7.0,NaN,2.7,NaN,51.9,NaN,2.7,NaN,NaN, NaN,NaN,238.0,NaN,NaN,NaN,2,10.4,000131,   NaN,239.1,     NaN,      NaN,NaN,5.3,NaN,15.483, NaN,NaN,NaN, NaN, NaN

20040107,000243,104385,32.216500,-118.814333,NaN,15.459,33.042,41.193,  NaN,0.0, NaN, NaN, NaN, NaN, NaN,355.432,14.60,1016.24,69.10,NaN,5.0,NaN,2.3,NaN,57.3,NaN,3.1,NaN,NaN, NaN,NaN,239.0,NaN,NaN,NaN,2,10.4,000161,   NaN,240.9,     NaN,      NaN,NaN,5.4,NaN,15.462, NaN,NaN,NaN, NaN, NaN

20040107,000313,104415,32.215833,-118.815667,NaN,15.436,33.037,41.166,  NaN,0.0, NaN, NaN, NaN, NaN, NaN,355.335,14.60,1016.41,69.50,NaN,2.0,NaN,2.3,NaN,58.3,NaN,3.1,NaN,NaN, NaN,NaN,238.0,NaN,NaN,NaN,2,10.4,000191,   NaN,239.8,     NaN,      NaN,NaN,5.4,NaN,15.440, NaN,NaN,NaN, NaN, NaN

20040107,000343,104445,32.215000,-118.817167,NaN,15.415,33.031,41.139,  NaN,0.0, NaN, NaN, NaN, NaN, NaN,355.390,14.60,1016.42,69.40,NaN,6.0,NaN,2.9,NaN,52.0,NaN,2.5,NaN,NaN, NaN,NaN,237.0,NaN,NaN,NaN,2,10.4,000221,   NaN,239.2,     NaN,      NaN,NaN,5.4,NaN,15.419, NaN,NaN,NaN, NaN, NaN

20040107,000413,104475,32.214167,-118.818667,NaN,15.392,33.026,41.112,  NaN,0.0, NaN, NaN, NaN, NaN, NaN,355.226,14.60,1016.39,70.30,NaN,7.0,NaN,2.8,NaN,52.2,NaN,2.6,NaN,NaN, NaN,NaN,238.0,NaN,NaN,NaN,2,10.4,000251,   NaN,239.9,     NaN,      NaN,NaN,5.5,NaN,15.396, NaN,NaN,NaN, NaN, NaN

20040107,000443,104505,32.213500,-118.820167,NaN,15.371,33.018,41.083,  NaN,0.0, NaN, NaN, NaN, NaN, NaN,355.377,14.60,1016.48,70.60,NaN,10.0,NaN,3.5,NaN,41.6,NaN,2.0,NaN,NaN, NaN,NaN,239.0,NaN,NaN,NaN,2,10.5,000281,   NaN,239.4,     NaN,      NaN,NaN,5.5,NaN,15.374, NaN,NaN,NaN, NaN, NaN

20040107,000513,104535,32.212667,-118.821500,NaN,15.343,33.010,41.049,  NaN,0.0, NaN, NaN, NaN, NaN, NaN,355.372,14.60,1016.39,71.10,NaN,11.0,NaN,3.3,NaN,42.1,NaN,2.2,NaN,NaN, NaN,NaN,237.0,NaN,NaN,NaN,2,10.4,000311,   NaN,239.2,     NaN,      NaN,NaN,5.5,NaN,15.347, NaN,NaN,NaN, NaN, NaN

20040107,000543,104565,32.212000,-118.823000,NaN,15.318,33.000,41.013,  NaN,0.0, NaN, NaN, NaN, NaN, NaN,355.632,14.60,1016.45,71.40,NaN,14.0,NaN,3.6,NaN,34.2,NaN,2.1,NaN,NaN, NaN,NaN,238.0,NaN,NaN,NaN,2,10.4,000341,   NaN,239.3,     NaN,      NaN,NaN,5.5,NaN,15.322, NaN,NaN,NaN, NaN, NaN

20040107,000613,104595,32.211167,-118.824500,NaN,15.298,32.992,40.985,  NaN,0.0, NaN, NaN, NaN, NaN, NaN,355.804,14.60,1016.48,70.90,NaN,16.0,NaN,3.7,NaN,29.9,NaN,2.1,NaN,NaN, NaN,NaN,238.0,NaN,NaN,NaN,2,10.4,000371,   NaN,239.6,     NaN,      NaN,NaN,5.5,NaN,15.302, NaN,NaN,NaN, NaN, NaN

20040107,000643,104625,32.210500,-118.826000,NaN,15.278,32.985,40.959,  NaN,0.0, NaN, NaN, NaN, NaN, NaN,355.885,14.60,1016.49,71.80,NaN,18.0,NaN,4.0,NaN,20.8,NaN,2.0,NaN,NaN, NaN,NaN,238.0,NaN,NaN,NaN,2,10.4,000401,   NaN,239.8,     NaN,      NaN,NaN,5.7,NaN,15.281, NaN,NaN,NaN, NaN, NaN

20040107,000713,104655,32.209667,-118.827333,NaN,15.264,32.981,40.942,  NaN,0.0, NaN, NaN, NaN, NaN, NaN,355.847,14.60,1016.56,70.40,NaN,17.0,NaN,4.5,NaN,7.5,NaN,1.7,NaN,NaN, NaN,NaN,238.0,NaN,NaN,NaN,2,10.4,000431,   NaN,239.8,     NaN,      NaN,NaN,5.5,NaN,15.267, NaN,NaN,NaN, NaN, NaN

20040107,000743,104685,32.209000,-118.828833,NaN,15.255,32.978,40.930,  NaN,0.0, NaN, NaN, NaN, NaN, NaN,355.927,14.60,1016.55,70.00,NaN,19.0,NaN,4.2,NaN,15.7,NaN,1.9,NaN,NaN, NaN,NaN,240.0,NaN,NaN,NaN,2,10.4,000461,   NaN,240.9,     NaN,      NaN,NaN,5.4,NaN,15.259, NaN,NaN,NaN, NaN, NaN

20040107,000813,104715,32.208333,-118.830333,NaN,15.251,32.977,40.925,  NaN,0.0, NaN, NaN, NaN, NaN, NaN,355.921,14.60,1016.61,70.60,NaN,15.0,NaN,3.5,NaN,33.8,NaN,2.1,NaN,NaN, NaN,NaN,238.0,NaN,NaN,NaN,2,10.4,000491,   NaN,239.3,     NaN,      NaN,NaN,5.5,NaN,15.255, NaN,NaN,NaN, NaN, NaN

20040107,000843,104745,32.207500,-118.831833,NaN,15.249,32.976,40.922,  NaN,0.0, NaN, NaN, NaN, NaN, NaN,355.907,14.60,1016.60,70.80,NaN,16.0,NaN,4.0,NaN,23.9,NaN,1.9,NaN,NaN, NaN,NaN,239.0,NaN,NaN,NaN,2,10.4,000521,   NaN,240.3,     NaN,      NaN,NaN,5.5,NaN,15.252, NaN,NaN,NaN, NaN, NaN

20040107,000913,104775,32.206833,-118.833167,NaN,15.246,32.976,40.920,  NaN,0.0, NaN, NaN, NaN, NaN, NaN,355.893,14.60,1016.61,71.40,NaN,23.0,NaN,4.8,NaN,355.5,NaN,2.1,NaN,NaN, NaN,NaN,239.0,NaN,NaN,NaN,2,10.3,000551,   NaN,239.9,     NaN,      NaN,NaN,5.4,NaN,15.250, NaN,NaN,NaN, NaN, NaN

20040107,000943,104805,32.206167,-118.834667,NaN,15.246,32.975,40.918,  NaN,0.0, NaN, NaN, NaN, NaN, NaN,355.966,14.60,1016.59,72.30,NaN,19.0,NaN,4.4,NaN,7.0,NaN,1.8,NaN,NaN, NaN,NaN,238.0,NaN,NaN,NaN,2,10.3,000581,   NaN,239.2,     NaN,      NaN,NaN,5.5,NaN,15.250, NaN,NaN,NaN, NaN, NaN

20040107,001013,104835,32.205333,-118.836000,NaN,15.238,32.975,40.911,  NaN,0.0, NaN, NaN, NaN, NaN, NaN,355.765,14.60,1016.56,72.00,NaN,26.0,NaN,4.1,NaN,12.0,NaN,2.4,NaN,NaN, NaN,NaN,237.0,NaN,NaN,NaN,2,10.3,000611,   NaN,240.5,     NaN,      NaN,NaN,5.5,NaN,15.242, NaN,NaN,NaN, NaN, NaN

20040107,001043,104865,32.204667,-118.837500,NaN,15.229,32.973,40.901,  NaN,0.0, NaN, NaN, NaN, NaN, NaN,355.732,14.60,1016.66,72.80,NaN,20.0,NaN,4.5,NaN,5.9,NaN,1.9,NaN,NaN, NaN,NaN,239.0,NaN,NaN,NaN,2,10.4,000641,   NaN,240.5,     NaN,      NaN,NaN,5.5,NaN,15.233, NaN,NaN,NaN, NaN, NaN

20040107,001113,104895,32.203833,-118.839000,NaN,15.219,32.973,40.891,  NaN,0.0, NaN, NaN, NaN, NaN, NaN,355.562,14.60,1016.63,74.50,NaN,23.0,NaN,4.7,NaN,359.0,NaN,2.1,NaN,NaN, NaN,NaN,239.0,NaN,NaN,NaN,2,10.4,000671,   NaN,239.4,     NaN,      NaN,NaN,5.5,NaN,15.223, NaN,NaN,NaN, NaN, NaN

20040107,001143,104925,32.203167,-118.840333,NaN,15.213,32.972,40.884,  NaN,0.0, NaN, NaN, NaN, NaN, NaN,355.497,14.60,1016.61,72.80,NaN,20.0,NaN,4.8,NaN,356.9,NaN,1.8,NaN,NaN, NaN,NaN,238.0,NaN,NaN,NaN,2,10.4,000701,   NaN,239.3,     NaN,      NaN,NaN,5.4,NaN,15.217, NaN,NaN,NaN, NaN, NaN

20040107,001213,104955,32.202500,-118.841833,NaN,15.216,32.970,40.885,  NaN,0.0, NaN, NaN, NaN, NaN, NaN,355.671,14.60,1016.64,73.20,NaN,18.0,NaN,4.7,NaN,2.2,NaN,1.7,NaN,NaN, NaN,NaN,240.0,NaN,NaN,NaN,2,10.4,000731,   NaN,240.3,     NaN,      NaN,NaN,5.4,NaN,15.220, NaN,NaN,NaN, NaN, NaN

20040107,001243,104985,32.201667,-118.843333,NaN,15.207,32.972,40.879,  NaN,0.0, NaN, NaN, NaN, NaN, NaN,355.335,14.60,1016.59,72.40,NaN,15.0,NaN,4.8,NaN,358.8,NaN,1.4,NaN,NaN, NaN,NaN,240.0,NaN,NaN,NaN,2,10.3,000761,   NaN,240.1,     NaN,      NaN,NaN,5.3,NaN,15.211, NaN,NaN,NaN, NaN, NaN

20040107,001313,105015,32.201000,-118.844833,NaN,15.197,32.973,40.871,  NaN,0.0, NaN, NaN, NaN, NaN, NaN,355.053,14.50,1016.70,72.30,NaN,16.0,NaN,4.7,NaN,3.2,NaN,1.6,NaN,NaN, NaN,NaN,238.0,NaN,NaN,NaN,2,10.5,000791,   NaN,238.3,     NaN,      NaN,NaN,5.5,NaN,15.201, NaN,NaN,NaN, NaN, NaN

20040107,001343,105045,32.200167,-118.846167,NaN,15.201,32.974,40.874,  NaN,0.0, NaN, NaN, NaN, NaN, NaN,355.108,14.60,1016.67,72.80,NaN,15.0,NaN,5.0,NaN,353.0,NaN,1.4,NaN,NaN, NaN,NaN,238.0,NaN,NaN,NaN,2,10.5,000821,   NaN,238.8,     NaN,      NaN,NaN,5.5,NaN,15.204, NaN,NaN,NaN, NaN, NaN

20040107,001413,105075,32.199500,-118.847667,NaN,15.201,32.976,40.877,  NaN,0.0, NaN, NaN, NaN, NaN, NaN,354.923,14.60,1016.69,72.80,NaN,15.0,NaN,4.5,NaN,10.4,NaN,1.5,NaN,NaN, NaN,NaN,239.0,NaN,NaN,NaN,2,10.4,000851,   NaN,240.5,     NaN,      NaN,NaN,5.4,NaN,15.204, NaN,NaN,NaN, NaN, NaN

20040107,001443,105105,32.198667,-118.849167,NaN,15.201,32.976,40.878,  NaN,0.0, NaN, NaN, NaN, NaN, NaN,354.919,14.60,1016.75,72.30,NaN,14.0,NaN,4.7,NaN,6.4,NaN,1.4,NaN,NaN, NaN,NaN,239.0,NaN,NaN,NaN,2,10.4,000881,   NaN,240.9,     NaN,      NaN,NaN,5.1,NaN,15.205, NaN,NaN,NaN, NaN, NaN

20040107,001513,105135,32.198000,-118.850500,NaN,15.210,32.978,40.888,  NaN,0.0, NaN, NaN, NaN, NaN, NaN,354.958,14.50,1016.70,71.90,NaN,21.0,NaN,4.9,NaN,352.7,NaN,1.9,NaN,NaN, NaN,NaN,238.0,NaN,NaN,NaN,2,10.4,000911,   NaN,238.5,     NaN,      NaN,NaN,5.5,NaN,15.213, NaN,NaN,NaN, NaN, NaN

20040107,001543,105165,32.197167,-118.852000,NaN,15.219,32.980,40.899,  NaN,0.0, NaN, NaN, NaN, NaN, NaN,355.032,14.60,1016.64,72.00,NaN,16.0,NaN,4.2,NaN,15.8,NaN,1.7,NaN,NaN, NaN,NaN,237.0,NaN,NaN,NaN,2,10.3,000941,   NaN,238.9,     NaN,      NaN,NaN,5.2,NaN,15.223, NaN,NaN,NaN, NaN, NaN

20040107,001613,105195,32.196500,-118.853500,NaN,15.223,32.982,40.904,  NaN,0.0, NaN, NaN, NaN, NaN, NaN,354.949,14.60,1016.76,73.10,NaN,14.0,NaN,5.0,NaN,353.6,NaN,1.3,NaN,NaN, NaN,NaN,240.0,NaN,NaN,NaN,2,10.4,000971,   NaN,240.7,     NaN,      NaN,NaN,5.4,NaN,15.226, NaN,NaN,NaN, NaN, NaN

20040107,001643,105225,32.195667,-118.854833,NaN,15.229,32.983,40.911,  NaN,0.0, NaN, NaN, NaN, NaN, NaN,355.016,14.60,1016.68,72.40,NaN,13.0,NaN,4.8,NaN,2.6,NaN,1.3,NaN,NaN, NaN,NaN,239.0,NaN,NaN,NaN,2,10.4,001001,   NaN,240.1,     NaN,      NaN,NaN,5.4,NaN,15.233, NaN,NaN,NaN, NaN, NaN

20040107,001713,105255,32.195000,-118.856333,NaN,15.231,32.985,40.916,  NaN,0.0, NaN, NaN, NaN, NaN, NaN,354.871,14.60,1016.71,72.90,NaN,11.0,NaN,4.2,NaN,26.3,NaN,1.5,NaN,NaN, NaN,NaN,238.0,NaN,NaN,NaN,2,10.4,001031,   NaN,239.9,     NaN,      NaN,NaN,5.2,NaN,15.235, NaN,NaN,NaN, NaN, NaN

20040107,001743,105285,32.194333,-118.857833,NaN,15.232,32.990,40.922,  NaN,0.0, NaN, NaN, NaN, NaN, NaN,354.566,14.60,1016.79,73.40,NaN,13.0,NaN,4.4,NaN,16.3,NaN,1.4,NaN,NaN, NaN,NaN,239.0,NaN,NaN,NaN,2,10.4,001060,   NaN,240.0,     NaN,      NaN,NaN,5.6,NaN,15.236, NaN,NaN,NaN, NaN, NaN

20040107,001813,105315,32.193500,-118.859333,NaN,15.260,32.996,40.954,  NaN,0.0, NaN, NaN, NaN, NaN, NaN,354.708,14.60,1016.72,73.10,NaN,15.0,NaN,4.4,NaN,12.8,NaN,1.6,NaN,NaN, NaN,NaN,238.0,NaN,NaN,NaN,2,10.4,001090,   NaN,239.7,     NaN,      NaN,NaN,5.6,NaN,15.263, NaN,NaN,NaN, NaN, NaN

20040107,001843,105345,32.192833,-118.860667,NaN,15.322,33.005,41.023,  NaN,0.0, NaN, NaN, NaN, NaN, NaN,355.292,14.50,1016.67,72.60,NaN,15.0,NaN,4.6,NaN,8.8,NaN,1.5,NaN,NaN, NaN,NaN,240.0,NaN,NaN,NaN,2,10.4,001120,   NaN,240.7,     NaN,      NaN,NaN,5.5,NaN,15.326, NaN,NaN,NaN, NaN, NaN

20040107,001913,105375,32.192000,-118.862167,NaN,15.351,33.024,41.071,  NaN,0.0, NaN, NaN, NaN, NaN, NaN,354.555,14.50,1016.72,72.90,NaN,15.0,NaN,4.2,NaN,18.6,NaN,1.7,NaN,NaN, NaN,NaN,238.0,NaN,NaN,NaN,2,10.4,001150,   NaN,239.2,     NaN,      NaN,NaN,5.6,NaN,15.355, NaN,NaN,NaN, NaN, NaN

20040107,001943,105405,32.191333,-118.863667,NaN,15.356,33.028,41.080,  NaN,0.0, NaN, NaN, NaN, NaN, NaN,354.307,14.50,1016.71,72.60,NaN,14.0,NaN,4.6,NaN,10.8,NaN,1.5,NaN,NaN, NaN,NaN,238.0,NaN,NaN,NaN,2,10.5,001180,   NaN,239.9,     NaN,      NaN,NaN,5.5,NaN,15.359, NaN,NaN,NaN, NaN, NaN

20040107,002013,105435,32.190500,-118.865167,NaN,15.351,33.030,41.077,  NaN,0.0, NaN, NaN, NaN, NaN, NaN,354.119,14.50,1016.71,72.20,NaN,15.0,NaN,4.3,NaN,20.5,NaN,1.7,NaN,NaN, NaN,NaN,241.0,NaN,NaN,NaN,2,10.5,001210,   NaN,242.7,     NaN,      NaN,NaN,5.4,NaN,15.355, NaN,NaN,NaN, NaN, NaN

20040107,002043,105465,32.189833,-118.866500,NaN,15.343,33.030,41.070,  NaN,0.0, NaN, NaN, NaN, NaN, NaN,353.941,14.60,1016.60,72.40,NaN,12.0,NaN,3.7,NaN,36.7,NaN,1.9,NaN,NaN, NaN,NaN,239.0,NaN,NaN,NaN,2,10.4,001240,   NaN,240.7,     NaN,      NaN,NaN,5.5,NaN,15.347, NaN,NaN,NaN, NaN, NaN

20040107,002113,105495,32.189167,-118.868000,NaN,15.337,33.028,41.062,  NaN,0.0, NaN, NaN, NaN, NaN, NaN,353.965,14.60,1016.75,73.30,NaN,14.0,NaN,3.7,NaN,34.9,NaN,2.0,NaN,NaN, NaN,NaN,239.0,NaN,NaN,NaN,2,10.4,001270,   NaN,241.9,     NaN,      NaN,NaN,5.4,NaN,15.341, NaN,NaN,NaN, NaN, NaN

20040107,002143,105525,32.188333,-118.869500,NaN,15.337,33.028,41.062,  NaN,0.0, NaN, NaN, NaN, NaN, NaN,353.967,14.60,1016.63,73.60,NaN,7.0,NaN,3.2,NaN,51.5,NaN,2.2,NaN,NaN, NaN,NaN,240.0,NaN,NaN,NaN,2,10.4,001300,   NaN,242.1,     NaN,      NaN,NaN,5.5,NaN,15.341, NaN,NaN,NaN, NaN, NaN

20040107,002213,105555,32.187667,-118.871000,NaN,15.340,33.028,41.065,  NaN,0.0, NaN, NaN, NaN, NaN, NaN,354.001,14.50,1016.68,72.70,NaN,10.0,NaN,4.0,NaN,36.4,NaN,1.6,NaN,NaN, NaN,NaN,240.0,NaN,NaN,NaN,2,10.5,001330,   NaN,242.2,     NaN,      NaN,NaN,5.5,NaN,15.343, NaN,NaN,NaN, NaN, NaN

20040107,002243,105585,32.187000,-118.872500,NaN,15.343,33.029,41.069,  NaN,0.0, NaN, NaN, NaN, NaN, NaN,354.011,14.60,1016.70,72.80,NaN,6.0,NaN,4.0,NaN,44.4,NaN,1.4,NaN,NaN, NaN,NaN,241.0,NaN,NaN,NaN,2,10.4,001360,   NaN,241.6,     NaN,      NaN,NaN,5.4,NaN,15.347, NaN,NaN,NaN, NaN, NaN

20040107,002313,105615,32.186333,-118.874000,NaN,15.350,33.029,41.075,  NaN,0.0, NaN, NaN, NaN, NaN, NaN,354.146,14.60,1016.68,72.90,NaN,9.0,NaN,3.6,NaN,44.1,NaN,1.9,NaN,NaN, NaN,NaN,239.0,NaN,NaN,NaN,2,10.4,001390,   NaN,241.5,     NaN,      NaN,NaN,5.4,NaN,15.353, NaN,NaN,NaN, NaN, NaN

20040107,002343,105645,32.185500,-118.875500,NaN,15.352,33.030,41.078,  NaN,0.0, NaN, NaN, NaN, NaN, NaN,354.117,14.60,1016.71,72.80,NaN,10.0,NaN,3.8,NaN,40.2,NaN,1.7,NaN,NaN, NaN,NaN,240.0,NaN,NaN,NaN,2,10.4,001420,   NaN,242.6,     NaN,      NaN,NaN,5.5,NaN,15.355, NaN,NaN,NaN, NaN, NaN

20040107,002413,105675,32.184833,-118.877000,NaN,15.355,33.030,41.081,  NaN,0.0, NaN, NaN, NaN, NaN, NaN,354.194,14.50,1016.64,72.20,NaN,10.0,NaN,3.8,NaN,39.5,NaN,1.7,NaN,NaN, NaN,NaN,240.0,NaN,NaN,NaN,2,10.4,001450,   NaN,241.8,     NaN,      NaN,NaN,5.5,NaN,15.359, NaN,NaN,NaN, NaN, NaN

20040107,002443,105705,32.184167,-118.878333,NaN,15.354,33.031,41.081,  NaN,0.0, NaN, NaN, NaN, NaN, NaN,354.127,14.60,1016.71,73.10,NaN,10.0,NaN,3.8,NaN,40.5,NaN,1.8,NaN,NaN, NaN,NaN,240.0,NaN,NaN,NaN,2,10.5,001480,   NaN,242.3,     NaN,      NaN,NaN,5.5,NaN,15.358, NaN,NaN,NaN, NaN, NaN

20040107,002513,105735,32.183500,-118.879833,NaN,15.352,33.031,41.079,  NaN,0.0, NaN, NaN, NaN, NaN, NaN,354.047,14.50,1016.61,72.00,NaN,10.0,NaN,3.9,NaN,38.2,NaN,1.7,NaN,NaN, NaN,NaN,239.0,NaN,NaN,NaN,2,10.5,001510,   NaN,241.8,     NaN,      NaN,NaN,5.5,NaN,15.355, NaN,NaN,NaN, NaN, NaN

20040107,002543,105765,32.182667,-118.881333,NaN,15.351,33.030,41.077,  NaN,0.0, NaN, NaN, NaN, NaN, NaN,354.120,14.50,1016.61,71.80,NaN,9.0,NaN,3.8,NaN,43.0,NaN,1.8,NaN,NaN, NaN,NaN,241.0,NaN,NaN,NaN,2,10.6,001540,   NaN,242.1,     NaN,      NaN,NaN,5.5,NaN,15.355, NaN,NaN,NaN, NaN, NaN

20040107,002613,105795,32.182000,-118.882833,NaN,15.346,33.030,41.074,  NaN,0.0, NaN, NaN, NaN, NaN, NaN,353.975,14.60,1016.59,71.80,NaN,7.0,NaN,3.5,NaN,49.6,NaN,1.9,NaN,NaN, NaN,NaN,241.0,NaN,NaN,NaN,2,10.5,001570,   NaN,242.6,     NaN,      NaN,NaN,5.5,NaN,15.350, NaN,NaN,NaN, NaN, NaN

20040107,002643,105825,32.181333,-118.884333,NaN,15.340,33.031,41.068,  NaN,0.0, NaN, NaN, NaN, NaN, NaN,353.814,14.50,1016.64,70.50,NaN,8.0,NaN,3.6,NaN,45.5,NaN,1.9,NaN,NaN, NaN,NaN,239.0,NaN,NaN,NaN,2,10.5,001600,   NaN,240.8,     NaN,      NaN,NaN,5.6,NaN,15.344, NaN,NaN,NaN, NaN, NaN

20040107,002713,105855,32.180500,-118.885833,NaN,15.341,33.030,41.069,  NaN,0.0, NaN, NaN, NaN, NaN, NaN,353.878,14.60,1016.62,70.80,NaN,6.0,NaN,3.6,NaN,50.4,NaN,1.9,NaN,NaN, NaN,NaN,241.0,NaN,NaN,NaN,2,10.5,001630,   NaN,241.8,     NaN,      NaN,NaN,5.1,NaN,15.345, NaN,NaN,NaN, NaN, NaN

20040107,002743,105885,32.179833,-118.887333,NaN,15.346,33.031,41.075,  NaN,0.0, NaN, NaN, NaN, NaN, NaN,353.885,14.60,1016.73,70.50,NaN,6.0,NaN,3.4,NaN,51.2,NaN,1.7,NaN,NaN, NaN,NaN,241.0,NaN,NaN,NaN,2,9.9,001660,   NaN,243.5,     NaN,      NaN,NaN,5.3,NaN,15.350, NaN,NaN,NaN, NaN, NaN

20040107,002813,105915,32.179333,-118.888500,NaN,15.350,33.032,41.079,  NaN,0.0, NaN, NaN, NaN, NaN, NaN,353.917,14.60,1016.73,70.00,NaN,8.0,NaN,1.9,NaN,54.7,NaN,2.0,NaN,NaN, NaN,NaN,240.0,NaN,NaN,NaN,2,7.4,001690,   NaN,242.1,     NaN,      NaN,NaN,3.5,NaN,15.353, NaN,NaN,NaN, NaN, NaN

20040107,002843,105945,32.178833,-118.889333,NaN,15.352,33.032,41.081,  NaN,0.0, NaN, NaN, NaN, NaN, NaN,353.953,14.60,1016.76,69.90,NaN,9.0,NaN,0.2,NaN,60.6,NaN,2.8,NaN,NaN, NaN,NaN,239.0,NaN,NaN,NaN,2,5.8,001720,   NaN,241.3,     NaN,      NaN,NaN,2.4,NaN,15.356, NaN,NaN,NaN, NaN, NaN

20040107,002913,105975,32.178500,-118.890167,NaN,15.356,33.032,41.085,  NaN,0.0, NaN, NaN, NaN, NaN, NaN,354.030,14.60,1016.70,70.80,NaN,8.0,NaN,0.0,NaN,71.6,NaN,2.4,NaN,NaN, NaN,NaN,245.0,NaN,NaN,NaN,2,4.6,001750,   NaN,252.3,     NaN,      NaN,NaN,1.5,NaN,15.360, NaN,NaN,NaN, NaN, NaN

20040107,002943,106005,32.178333,-118.890667,NaN,15.357,33.033,41.088,  NaN,0.0, NaN, NaN, NaN, NaN, NaN,353.978,14.60,1016.74,69.90,NaN,9.0,NaN,0.0,NaN,99.1,NaN,1.7,NaN,NaN, NaN,NaN,266.0,NaN,NaN,NaN,2,3.3,001780,   NaN,279.9,     NaN,      NaN,NaN,0.7,NaN,15.361, NaN,NaN,NaN, NaN, NaN

20040107,003013,106035,32.178500,-118.891000,NaN,15.358,33.034,41.089,  NaN,0.0, NaN, NaN, NaN, NaN, NaN,353.954,14.60,1016.81,71.10,NaN,9.0,NaN,0.0,NaN,123.1,NaN,1.1,NaN,NaN, NaN,NaN,287.0,NaN,NaN,NaN,2,2.2,001810,   NaN,303.1,     NaN,      NaN,NaN,0.3,NaN,15.362, NaN,NaN,NaN, NaN, NaN

20040107,003043,106065,32.178500,-118.891333,NaN,15.359,33.034,41.090,  NaN,0.0, NaN, NaN, NaN, NaN, NaN,353.995,14.60,1016.78,70.30,NaN,9.0,NaN,0.0,NaN,131.0,NaN,0.8,NaN,NaN, NaN,NaN,296.0,NaN,NaN,NaN,2,1.5,001840,   NaN,311.0,     NaN,      NaN,NaN,0.1,NaN,15.363, NaN,NaN,NaN, NaN, NaN

20040107,003113,106095,32.178500,-118.891500,NaN,15.359,33.034,41.090,  NaN,0.0, NaN, NaN, NaN, NaN, NaN,353.994,14.60,1016.87,69.70,NaN,9.0,NaN,0.0,NaN,140.6,NaN,0.4,NaN,NaN, NaN,NaN,305.0,NaN,NaN,NaN,2,0.8,001870,   NaN,320.9,     NaN,      NaN,NaN,-0.1,NaN,15.363, NaN,NaN,NaN, NaN, NaN

20040107,003143,106125,32.178667,-118.891500,NaN,15.359,33.034,41.089,  NaN,0.0, NaN, NaN, NaN, NaN, NaN,353.973,14.60,1016.69,69.90,NaN,9.0,NaN,0.0,NaN,148.5,NaN,0.2,NaN,NaN, NaN,NaN,290.0,NaN,NaN,NaN,2,0.4,001900,   NaN,328.5,     NaN,      NaN,NaN,-0.4,NaN,15.362, NaN,NaN,NaN, NaN, NaN

20040107,003213,106155,32.178667,-118.891500,NaN,15.358,33.034,41.089,  NaN,0.0, NaN, NaN, NaN, NaN, NaN,353.973,14.60,1016.83,69.70,NaN,9.0,NaN,0.0,NaN,155.3,NaN,0.2,NaN,NaN, NaN,NaN,356.0,NaN,NaN,NaN,2,0.4,001930,   NaN,335.3,     NaN,      NaN,NaN,-0.5,NaN,15.362, NaN,NaN,NaN, NaN, NaN

20040107,003243,106185,32.178667,-118.891500,NaN,15.359,33.033,41.089,  NaN,0.0, NaN, NaN, NaN, NaN, NaN,354.042,14.60,1016.86,70.10,NaN,9.0,NaN,0.0,NaN,162.3,NaN,0.3,NaN,NaN, NaN,NaN,138.0,NaN,NaN,NaN,2,0.5,001960,   NaN,342.7,     NaN,      NaN,NaN,-0.5,NaN,15.363, NaN,NaN,NaN, NaN, NaN

20040107,003313,106215,32.178667,-118.891500,NaN,15.359,33.033,41.089,  NaN,0.0, NaN, NaN, NaN, NaN, NaN,354.017,14.60,1016.79,70.80,NaN,9.0,NaN,0.0,NaN,170.2,NaN,0.2,NaN,NaN, NaN,NaN,156.0,NaN,NaN,NaN,2,0.3,001990,   NaN,350.5,     NaN,      NaN,NaN,-0.6,NaN,15.363, NaN,NaN,NaN, NaN, NaN

20040107,003343,106245,32.178667,-118.891500,NaN,15.359,33.034,41.090,  NaN,0.0, NaN, NaN, NaN, NaN, NaN,353.994,14.60,1016.75,70.40,NaN,9.0,NaN,0.0,NaN,177.0,NaN,0.3,NaN,NaN, NaN,NaN,176.0,NaN,NaN,NaN,2,0.5,002020,   NaN,357.0,     NaN,      NaN,NaN,-0.6,NaN,15.363, NaN,NaN,NaN, NaN, NaN

20040107,003413,106275,32.178667,-118.891667,NaN,15.359,33.034,41.089,  NaN,0.0, NaN, NaN, NaN, NaN, NaN,353.973,14.60,1016.72,70.50,NaN,9.0,NaN,0.0,NaN,182.1,NaN,0.3,NaN,NaN, NaN,NaN,181.0,NaN,NaN,NaN,2,0.6,002050,   NaN,2.1,     NaN,      NaN,NaN,-0.7,NaN,15.362, NaN,NaN,NaN, NaN, NaN

20040107,003443,106305,32.178667,-118.891667,NaN,15.362,33.034,41.092,  NaN,0.0, NaN, NaN, NaN, NaN, NaN,354.054,14.60,1016.74,70.40,NaN,9.0,NaN,0.0,NaN,184.6,NaN,0.4,NaN,NaN, NaN,NaN,175.0,NaN,NaN,NaN,2,0.7,002080,   NaN,4.7,     NaN,      NaN,NaN,-0.7,NaN,15.366, NaN,NaN,NaN, NaN, NaN

20040107,003513,106335,32.178500,-118.891667,NaN,15.361,33.034,41.092,  NaN,0.0, NaN, NaN, NaN, NaN, NaN,354.010,14.60,1016.67,70.30,NaN,9.0,NaN,0.0,NaN,183.4,NaN,0.4,NaN,NaN, NaN,NaN,193.0,NaN,NaN,NaN,2,0.7,002110,   NaN,3.3,     NaN,      NaN,NaN,-0.7,NaN,15.365, NaN,NaN,NaN, NaN, NaN

20040107,003543,106365,32.178500,-118.891667,NaN,15.359,33.034,41.090,  NaN,0.0, NaN, NaN, NaN, NaN, NaN,354.018,14.60,1016.66,69.70,NaN,9.0,NaN,0.0,NaN,179.0,NaN,0.4,NaN,NaN, NaN,NaN,194.0,NaN,NaN,NaN,2,0.8,002140,   NaN,359.0,     NaN,      NaN,NaN,-0.7,NaN,15.363, NaN,NaN,NaN, NaN, NaN

20040107,003613,106395,32.178500,-118.891667,NaN,15.360,33.033,41.090,  NaN,0.0, NaN, NaN, NaN, NaN, NaN,354.061,14.60,1016.65,70.80,NaN,9.0,NaN,0.0,NaN,174.9,NaN,0.5,NaN,NaN, NaN,NaN,186.0,NaN,NaN,NaN,2,0.9,002170,   NaN,354.9,     NaN,      NaN,NaN,-0.7,NaN,15.364, NaN,NaN,NaN, NaN, NaN

20040107,003643,106425,32.178333,-118.891667,NaN,15.361,33.034,41.091,  NaN,0.0, NaN, NaN, NaN, NaN, NaN,354.035,14.60,1016.67,70.30,NaN,9.0,NaN,0.0,NaN,170.5,NaN,0.5,NaN,NaN, NaN,NaN,192.0,NaN,NaN,NaN,2,1.0,002200,   NaN,350.4,     NaN,      NaN,NaN,-0.7,NaN,15.364, NaN,NaN,NaN, NaN, NaN

20040107,003713,106455,32.178167,-118.891667,NaN,15.361,33.034,41.092,  NaN,0.0, NaN, NaN, NaN, NaN, NaN,354.010,14.60,1016.73,70.50,NaN,10.0,NaN,0.0,NaN,167.0,NaN,0.5,NaN,NaN, NaN,NaN,181.0,NaN,NaN,NaN,2,1.0,002230,   NaN,347.1,     NaN,      NaN,NaN,-0.7,NaN,15.365, NaN,NaN,NaN, NaN, NaN

20040107,003743,106485,32.177833,-118.891667,NaN,15.361,33.034,41.091,  NaN,0.0, NaN, NaN, NaN, NaN, NaN,354.056,14.60,1016.71,70.90,NaN,10.0,NaN,0.0,NaN,163.2,NaN,0.5,NaN,NaN, NaN,NaN,184.0,NaN,NaN,NaN,2,1.0,002260,   NaN,343.2,     NaN,      NaN,NaN,-0.7,NaN,15.365, NaN,NaN,NaN, NaN, NaN

20040107,003813,106515,32.177833,-118.891667,NaN,15.361,33.035,41.092,  NaN,0.0, NaN, NaN, NaN, NaN, NaN,353.964,14.60,1016.71,70.90,NaN,10.0,NaN,0.0,NaN,160.0,NaN,0.5,NaN,NaN, NaN,NaN,176.0,NaN,NaN,NaN,2,1.0,002290,   NaN,340.0,     NaN,      NaN,NaN,-0.7,NaN,15.364, NaN,NaN,NaN, NaN, NaN

20040107,003843,106545,32.177833,-118.891667,NaN,15.360,33.034,41.091,  NaN,0.0, NaN, NaN, NaN, NaN, NaN,353.968,14.60,1016.75,70.60,NaN,9.0,NaN,0.0,NaN,156.1,NaN,0.5,NaN,NaN, NaN,NaN,172.0,NaN,NaN,NaN,2,1.0,002320,   NaN,335.8,     NaN,      NaN,NaN,-0.7,NaN,15.363, NaN,NaN,NaN, NaN, NaN

20040107,003913,106575,32.177667,-118.891667,NaN,15.361,33.034,41.092,  NaN,0.0, NaN, NaN, NaN, NaN, NaN,353.987,14.60,1016.80,71.30,NaN,10.0,NaN,0.0,NaN,152.5,NaN,0.6,NaN,NaN, NaN,NaN,172.0,NaN,NaN,NaN,2,1.1,002350,   NaN,332.5,     NaN,      NaN,NaN,-0.7,NaN,15.364, NaN,NaN,NaN, NaN, NaN

20040107,003943,106605,32.177500,-118.891667,NaN,15.361,33.034,41.091,  NaN,0.0, NaN, NaN, NaN, NaN, NaN,353.989,14.60,1016.71,70.80,NaN,10.0,NaN,0.0,NaN,149.0,NaN,0.5,NaN,NaN, NaN,NaN,170.0,NaN,NaN,NaN,2,0.9,002380,   NaN,329.0,     NaN,      NaN,NaN,-0.7,NaN,15.364, NaN,NaN,NaN, NaN, NaN

20040107,004013,106635,32.177500,-118.891667,NaN,15.361,33.034,41.092,  NaN,0.0, NaN, NaN, NaN, NaN, NaN,353.987,14.60,1016.76,70.80,NaN,10.0,NaN,0.0,NaN,145.1,NaN,0.4,NaN,NaN, NaN,NaN,172.0,NaN,NaN,NaN,2,0.8,002410,   NaN,325.1,     NaN,      NaN,NaN,-0.6,NaN,15.364, NaN,NaN,NaN, NaN, NaN

20040107,004043,106665,32.177333,-118.891500,NaN,15.362,33.034,41.093,  NaN,0.0, NaN, NaN, NaN, NaN, NaN,354.028,14.60,1016.91,70.90,NaN,10.0,NaN,0.0,NaN,140.8,NaN,0.4,NaN,NaN, NaN,NaN,170.0,NaN,NaN,NaN,2,0.7,002440,   NaN,320.8,     NaN,      NaN,NaN,-0.7,NaN,15.366, NaN,NaN,NaN, NaN, NaN
